Tracking 29790 objects as of 12-Oct-2024
HD Live streaming from Space Station
objects crossing your sky now

ICEYE-X35

Track ICEYE-X35 now!
10-day predictions


NORAD ID: 58302
Int'l Code: 2023-174AY
Perigee: 499.4 km
Apogee: 527.7 km
Inclination: 97.4 °
Period: 94.7 minutes
Semi major axis: 6884 km
RCS: Unknown
Launch date: November 11, 2023
Source: United States (US)
Launch site: AIR FORCE WESTERN TEST RANGE (AFWTR)
Your satellite tracking list
Your tracking list is empty




NASA's NSSDC Master Catalog

Two Line Element Set (TLE):
1 58302U 23174AY  24286.18309933  .00036421  00000-0  16873-2 0  9996
2 58302  97.4440 358.5223 0020538 203.5242 156.5056 15.19808240 51420
Source of the keplerian elements: AFSPC